map of LFBC home
Great Circle Mapper logo
LFBC - Airport
Location
City:  Cazaux, France
ICAO:LFBC

Details
Type:Airport (Aerodrome, Airfield)
Use:Military
Latitude:4432'06"N (44.534883)
Longitude:107'53"W (-1.131449)
Elevation:84 ft (26 m)
Variation:0.51W (WMM2015 magnetic declination)
0.13 annual change
Runways:1
Longest:7900 × 148 ft (2408 × 45 m)

Time
Time Zone:UTC+1 (DST+2)
Local Time:

Weather
METAR:LFBC 301930Z AUTO 25009KT 220V280 3500 -RADZ BR BKN006 OVC010 12/11 Q1027
TAF:LFBC 301700Z 3018/3118 27010KT 9999 OVC005
BECMG 3018/3019 27015G25KT 4000 DZ OVC004
TEMPO 3018/3109 1500 DZRA BKN002 OVC003
BECMG 3109/3111 6000 NSW SCT006 BKN010
BECMG 3112/3114 4000 DZ OVC005

Related Locations
Nearby:
Farthest:CHT: 12203 mi / 19638 km
Waitangi [Tuuta], Chatham Islands, NZ

Find:

   beyond  
but within

Other Information
Maps:
NOTAMs:
Links:
Sources:

  
flag of France   

Sectional Chart

Flight Planning
at skyvector.com

Satellite Image

Google Maps Satellite View

 

Copyright © 2004-2015 Karl L. Swartz. All rights reserved.
The Great Circle Mapper name and logo are trademarks of the Great Circle Mapper.
All other trademarks mentioned herein belong to their respective owners.
Please see credits for attibutions and further copyright information.

  Follow gcmap on Facebook Follow gcmap on Twitter Follow gcmap on Google+

hCard Microformat

Geo Microformat